User: anonymous
Location: Albany
(35.0000°S, 118.0000°E)
Time: 11:09:39
(UTC-04:00)
Language:

Radarsat Rocket - Orbit

View from above orbital plane
View from above orbital plane
View from above satellite
View from above satellite

Ground track
Ground track

The orbit data is extracted from the following two-line orbital elements,

1 23711U 95059B   14210.48169552  .00000120  00000-0  32277-3 0  7131
2 23711 100.4515 195.0962 0368134 185.0925 288.5991 13.12644738897543
Epoch (UTC): 29 July 2014 11:33:38
Eccentricity: 0.0368134
inclination: 100.4515°
perigee height: 933 km
apogee height: 1492 km
right ascension of ascending node: 195.0962°
argument of perigee: 185.0925°
revolutions per day: 13.12644738
mean anomaly at epoch: 288.5991°
orbit number at epoch: 89754

The dashed part of the orbit path shows where the satellite is in the earth's shadow,  

DLR